Hoquiam, WA

2:57 AM PDT on August 17, 2017 (GMT -0700)
Bowerman

Weather History for KHQM - August, 2013

Change the Weather History Date:

Friday, August 16, 2013

  Actual Average Record
Temperature  
Mean Temperature 64 °F 61 °F  
Max Temperature 70 °F 68 °F 88 °F (1985)
Min Temperature 58 °F 54 °F 43 °F (2011)
Degree Days  
Heating Degree Days 1 4  
Month to date heating degree days 68 64  
Since 1 June heating degree days 390 474  
Cooling Degree Days 0 0  
Month to date cooling degree days 0 0  
Year to date cooling degree days 11 9  
Since 1 June cooling degree days 8 8  
Growing Degree Days 14 (Base 50)    
Moisture  
Dew Point 59 °F    
Average Humidity 87    
Maximum Humidity 100    
Minimum Humidity 73    
Precipitation  
Precipitation 0.00 in 0.05 in 0.36 in (1988)
Month to date precipitation 0.61 0.50  
Year to date precipitation 33.17 36.80  
Sea Level Pressure  
Sea Level Pressure 30.02 in    
Wind  
Wind Speed 5 mph (SW)    
Max Wind Speed 17 mph    
Max Gust Speed 20 mph    
Visibility 6 miles    
Events Fog    
T = Trace of Precipitation, MM = Missing Value Source: NWS Daily Summary

Daily Weather History Graph

Daily Weather History Graph

Search for Another Location

Airport or City:

Trip Planner

Search our weather history database for the weather conditions in past years. The results will help you decide how hot, cold, wet, or windy it might be!

Date:

Astronomy

Aug. 16, 2013 Rise Set
Actual Time 6:14 AM PDT 8:24 PM PDT
Civil Twilight 5:41 AM PDT 8:57 PM PDT
Nautical Twilight 5:00 AM PDT 9:38 PM PDT
Astronomical Twilight 4:14 AM PDT 10:24 PM PDT
Moon 4:56 PM PDT (8/16) 1:15 AM PDT (8/16)
Length of Visible Light 15h 15m
Length of Day
14h 09m
Waxing Gibbous, 76% of the Moon is Illuminated
Aug 16
Waxing Gibbous
Aug 20
Full
Aug 28
Last Quarter
Sep 5
New
Sep 12
First Quarter

Hourly Weather History & Observations

Time (PDT) Temp. Dew Point Humidity Pressure Visibility Wind Dir Wind Speed Gust Speed Precip Events Conditions
12:18 AM 59.0 °F 59.0 °F 100% 29.99 in 0.2 mi Calm Calm - N/A Fog Fog
12:32 AM 59.0 °F 59.0 °F 100% 29.98 in 0.2 mi Calm Calm - N/A Fog Fog
12:53 AM 59.0 °F 59.0 °F 100% 29.99 in 0.2 mi Calm Calm - N/A Fog Fog
1:53 AM 57.9 °F 57.9 °F 100% 30.00 in 0.2 mi Calm Calm - N/A Fog Fog
2:16 AM 57.2 °F 57.2 °F 100% 29.98 in 0.5 mi Calm Calm - N/A Fog Fog
2:30 AM 57.2 °F 57.2 °F 100% 29.98 in 2.0 mi NE 3.5 mph - N/A   Overcast
2:38 AM 59.0 °F 57.2 °F 94% 29.98 in 4.0 mi NE 3.5 mph - N/A   Overcast
2:48 AM 57.2 °F 57.2 °F 100% 29.99 in 5.0 mi Calm Calm - N/A   Overcast
2:53 AM 59.0 °F 57.9 °F 96% 30.00 in 5.0 mi Calm Calm - N/A   Overcast
3:44 AM 59.0 °F 57.2 °F 94% 29.99 in 4.0 mi Calm Calm - N/A   Overcast
3:53 AM 60.1 °F 59.0 °F 96% 30.00 in 4.0 mi Calm Calm - N/A   Overcast
4:36 AM 60.8 °F 57.2 °F 88% 29.99 in 2.5 mi Calm Calm - N/A   Overcast
4:53 AM 60.1 °F 59.0 °F 96% 30.00 in 2.0 mi Calm Calm - N/A   Overcast
5:31 AM 60.8 °F 59.0 °F 94% 29.99 in 3.0 mi Calm Calm - N/A   Overcast
5:53 AM 60.1 °F 59.0 °F 96% 30.00 in 3.0 mi Calm Calm - N/A   Overcast
6:12 AM 60.8 °F 59.0 °F 94% 30.00 in 2.5 mi Calm Calm - N/A   Overcast
6:35 AM 60.8 °F 59.0 °F 94% 30.00 in 1.2 mi Calm Calm - N/A   Overcast
6:53 AM 60.1 °F 59.0 °F 96% 30.01 in 1.5 mi Calm Calm - N/A   Overcast
7:04 AM 60.8 °F 59.0 °F 94% 30.00 in 2.5 mi ENE 3.5 mph - N/A   Overcast
7:23 AM 60.8 °F 60.8 °F 100% 29.99 in 5.0 mi NE 3.5 mph - N/A   Overcast
7:53 AM 62.1 °F 61.0 °F 96% 30.01 in 10.0 mi Calm Calm - N/A   Overcast
8:04 AM 62.6 °F 60.8 °F 94% 30.00 in 10.0 mi East 3.5 mph - N/A   Overcast
8:28 AM 62.6 °F 60.8 °F 94% 30.01 in 10.0 mi Calm Calm - N/A   Overcast
8:53 AM 62.1 °F 61.0 °F 96% 30.02 in 10.0 mi East 3.5 mph - N/A   Overcast
9:53 AM 63.0 °F 61.0 °F 93% 30.02 in 10.0 mi Calm Calm - N/A   Overcast
10:48 AM 66.2 °F 60.8 °F 83% 30.01 in 10.0 mi East 3.5 mph - N/A   Overcast
10:53 AM 66.0 °F 61.0 °F 84% 30.02 in 10.0 mi Calm Calm - N/A   Overcast
11:16 AM 68.0 °F 62.6 °F 83% 30.01 in 10.0 mi East 3.5 mph - N/A   Scattered Clouds
11:53 AM 70.0 °F 62.1 °F 76% 30.03 in 10.0 mi Calm Calm - N/A   Clear
12:53 PM 68.0 °F 62.1 °F 81% 30.03 in 10.0 mi WSW 13.8 mph - N/A   Clear
1:42 PM 66.2 °F 60.8 °F 83% 30.03 in 10.0 mi WSW 17.3 mph - N/A   Scattered Clouds
1:53 PM 66.0 °F 61.0 °F 84% 30.04 in 10.0 mi WSW 10.4 mph - N/A   Mostly Cloudy
2:12 PM 66.2 °F 60.8 °F 83% 30.03 in 10.0 mi SW 12.7 mph - N/A   Scattered Clouds
2:53 PM 66.9 °F 60.1 °F 79% 30.04 in 10.0 mi WSW 9.2 mph - N/A   Clear
3:53 PM 66.9 °F 60.1 °F 79% 30.03 in 10.0 mi WSW 9.2 mph - N/A   Clear
4:53 PM 66.9 °F 57.0 °F 70% 30.03 in 10.0 mi WSW 11.5 mph - N/A   Clear
5:53 PM 64.0 °F 59.0 °F 84% 30.04 in 10.0 mi WSW 8.1 mph - N/A   Clear
6:40 PM 62.6 °F 57.2 °F 82% 30.03 in 10.0 mi WSW 9.2 mph - N/A   Scattered Clouds
6:53 PM 62.1 °F 57.9 °F 86% 30.04 in 10.0 mi WSW 9.2 mph - N/A   Scattered Clouds
7:13 PM 60.8 °F 57.2 °F 88% 30.03 in 10.0 mi WSW 9.2 mph - N/A   Mostly Cloudy
7:53 PM 59.0 °F 57.9 °F 96% 30.05 in 4.0 mi WSW 6.9 mph - N/A   Overcast
8:53 PM 60.1 °F 57.9 °F 93% 30.05 in 8.0 mi West 8.1 mph - N/A   Overcast
9:53 PM 59.0 °F 57.9 °F 96% 30.07 in 8.0 mi SW 6.9 mph - N/A   Overcast
10:24 PM 59.0 °F 57.2 °F 94% 30.06 in 10.0 mi SSW 5.8 mph - N/A   Overcast
10:53 PM 59.0 °F 57.0 °F 93% 30.06 in 10.0 mi SSW 5.8 mph - N/A   Overcast
11:53 PM 59.0 °F 57.0 °F 93% 30.06 in 10.0 mi South 4.6 mph - N/A   Overcast